Volver al catálogo

COSMOS 2251 DEB

ActivoLEO
NORAD 34434·DEBRIS·🇷🇺 Russia

Lanzado Jun 16, 1993 desde Plesetsk Cosmodrome

Loading…

Próximos Pases (próximas 24 horas)

TLE

ActualizadoSource: Space-Track

Época: Sep 14, 2026, 00:55 UTC

1 34434U 93036SB  26257.03844109  .00003715  00000-0  21310-2 0  9995
2 34434  74.0576 260.8627 0280214 331.8037  54.7102 13.91840067877945

Sigue COSMOS 2251 DEB en tiempo real con AllMySat

Download on the App Store